Previsão horária em Ploske

Hoje, 27 Fevereiro, Sábado

Tempo Temperatura Precipitação Vento Pressão Humidade
00:00 +5°C° 0.3 mm 4 m/s 733 mmHg 91%
01:00 +5°C° 0.3 mm 5 m/s 733 mmHg 90%
02:00 +2°C° 0 mm 5 m/s 733 mmHg 93%
03:00 +2°C° 0.1 mm 5 m/s 733 mmHg 93%
04:00 +1°C° 0.1 mm 5 m/s 733 mmHg 93%
05:00 +1°C° 0.1 mm 6 m/s 733 mmHg 93%
06:00 +1°C° 0 mm 6 m/s 733 mmHg 92%
07:00 +1°C° 0 mm 6 m/s 734 mmHg 91%
08:00 +1°C° 0 mm 6 m/s 734 mmHg 89%
09:00 +1°C° 0 mm 6 m/s 734 mmHg 86%
10:00 +1°C° 0 mm 6 m/s 734 mmHg 83%
11:00 +1°C° 0 mm 6 m/s 734 mmHg 79%
12:00 0°C° 0 mm 7 m/s 734 mmHg 81%
13:00 0°C° 0 mm 7 m/s 734 mmHg 83%
14:00 0°C° 0 mm 7 m/s 735 mmHg 86%
15:00 0°C° 0 mm 7 m/s 735 mmHg 84%
16:00 0°C° 0 mm 7 m/s 735 mmHg 83%
17:00 0°C° 0 mm 7 m/s 735 mmHg 82%
18:00 0°C° 0 mm 7 m/s 735 mmHg 83%
19:00 -1°C° 0 mm 7 m/s 736 mmHg 83%
20:00 -1°C° 0 mm 7 m/s 736 mmHg 84%
21:00 -1°C° 0 mm 6 m/s 736 mmHg 86%
22:00 -2°C° 0 mm 6 m/s 736 mmHg 89%
23:00 -2°C° 0 mm 6 m/s 737 mmHg 91%

Amanhã, 28 Fevereiro, Domingo

Tempo Temperatura Precipitação Vento Pressão Humidade
00:00 -2°C° 0 mm 6 m/s 737 mmHg 91%
01:00 -2°C° 0 mm 6 m/s 737 mmHg 90%
02:00 -2°C° 0 mm 6 m/s 737 mmHg 90%
03:00 -3°C° 0 mm 6 m/s 737 mmHg 90%
04:00 -3°C° 0 mm 6 m/s 737 mmHg 90%
05:00 -3°C° 0 mm 6 m/s 737 mmHg 89%
06:00 -3°C° 0 mm 6 m/s 738 mmHg 89%
07:00 -4°C° 0 mm 6 m/s 738 mmHg 89%
08:00 -4°C° 0 mm 6 m/s 738 mmHg 89%
09:00 -3°C° 0 mm 6 m/s 738 mmHg 85%
10:00 -3°C° 0 mm 6 m/s 738 mmHg 82%
11:00 -2°C° 0 mm 6 m/s 738 mmHg 78%
12:00 -1°C° 0 mm 6 m/s 738 mmHg 74%
13:00 0°C° 0 mm 7 m/s 738 mmHg 70%
14:00 +2°C° 0 mm 7 m/s 738 mmHg 65%
15:00 +2°C° 0 mm 7 m/s 737 mmHg 67%
16:00 +2°C° 0 mm 6 m/s 737 mmHg 69%
17:00 +1°C° 0 mm 6 m/s 736 mmHg 70%
18:00 +1°C° 0 mm 6 m/s 736 mmHg 72%
19:00 +1°C° 0 mm 6 m/s 736 mmHg 74%
20:00 +1°C° 0 mm 6 m/s 736 mmHg 76%
21:00 -1°C° 0.5 mm 6 m/s 736 mmHg 83%
22:00 -1°C° 0.5 mm 7 m/s 736 mmHg 89%
23:00 -1°C° 0.5 mm 7 m/s 735 mmHg 96%

Depois de amanhã, 1 Março, Segunda-feira

Tempo Temperatura Precipitação Vento Pressão Humidade
00:00 -1°C° 0.5 mm 6 m/s 736 mmHg 96%
01:00 -1°C° 0.5 mm 6 m/s 736 mmHg 95%
02:00 0°C° 0.5 mm 5 m/s 737 mmHg 95%
03:00 0°C° 0.1 mm 5 m/s 737 mmHg 95%
04:00 -1°C° 0.1 mm 4 m/s 737 mmHg 95%
05:00 0°C° 0.1 mm 3 m/s 737 mmHg 94%
06:00 0°C° 0 mm 3 m/s 738 mmHg 94%
07:00 0°C° 0 mm 3 m/s 738 mmHg 94%
08:00 0°C° 0 mm 3 m/s 739 mmHg 94%
09:00 0°C° 0 mm 3 m/s 739 mmHg 91%
10:00 +1°C° 0 mm 3 m/s 739 mmHg 88%
11:00 +1°C° 0 mm 3 m/s 740 mmHg 86%
12:00 +2°C° 0 mm 3 m/s 740 mmHg 83%
13:00 +2°C° 0 mm 3 m/s 740 mmHg 80%
14:00 +2°C° 0 mm 3 m/s 740 mmHg 77%
15:00 +2°C° 0 mm 3 m/s 740 mmHg 76%
16:00 +2°C° 0 mm 3 m/s 740 mmHg 76%
17:00 +1°C° 0 mm 4 m/s 740 mmHg 76%
18:00 +2°C° 0 mm 3 m/s 740 mmHg 79%
19:00 +2°C° 0 mm 3 m/s 741 mmHg 83%
20:00 +2°C° 0 mm 2 m/s 741 mmHg 86%
21:00 +1°C° 0 mm 3 m/s 741 mmHg 88%
22:00 +1°C° 0 mm 3 m/s 741 mmHg 90%
23:00 +1°C° 0 mm 3 m/s 741 mmHg 92%

2 Março, Terça-feira

Tempo Temperatura Precipitação Vento Pressão Humidade
00:00 +1°C° 0 mm 3 m/s 741 mmHg 93%
01:00 +1°C° 0 mm 3 m/s 741 mmHg 93%
02:00 0°C° 0 mm 4 m/s 741 mmHg 93%
03:00 0°C° 0 mm 4 m/s 741 mmHg 94%
04:00 -1°C° 0 mm 4 m/s 741 mmHg 94%
05:00 -1°C° 0 mm 4 m/s 740 mmHg 94%
06:00 -1°C° 0 mm 4 m/s 740 mmHg 94%
07:00 -1°C° 0 mm 5 m/s 740 mmHg 93%
08:00 -1°C° 0 mm 5 m/s 740 mmHg 92%
09:00 +1°C° 0 mm 6 m/s 740 mmHg 86%
10:00 +2°C° 0 mm 6 m/s 740 mmHg 80%
11:00 +4°C° 0 mm 6 m/s 740 mmHg 74%
12:00 +5°C° 0 mm 6 m/s 740 mmHg 70%
13:00 +7°C° 0 mm 6 m/s 740 mmHg 66%
14:00 +8°C° 0 mm 6 m/s 740 mmHg 62%
15:00 +7°C° 0 mm 6 m/s 740 mmHg 63%
16:00 +7°C° 0 mm 6 m/s 739 mmHg 65%
17:00 +7°C° 0 mm 5 m/s 739 mmHg 66%
18:00 +6°C° 0 mm 5 m/s 739 mmHg 71%
19:00 +5°C° 0 mm 4 m/s 739 mmHg 76%
20:00 +4°C° 0 mm 4 m/s 739 mmHg 81%
21:00 +3°C° 0 mm 4 m/s 739 mmHg 83%
22:00 +3°C° 0 mm 4 m/s 739 mmHg 85%
23:00 +1°C° 0 mm 4 m/s 740 mmHg 87%

3 Março, Quarta-feira

Tempo Temperatura Precipitação Vento Pressão Humidade
00:00 +1°C° 0 mm 4 m/s 739 mmHg 88%
01:00 +1°C° 0 mm 4 m/s 739 mmHg 88%
02:00 +1°C° 0 mm 3 m/s 739 mmHg 89%
03:00 +1°C° 0 mm 3 m/s 739 mmHg 90%
04:00 +1°C° 0 mm 3 m/s 739 mmHg 90%
05:00 0°C° 0 mm 3 m/s 739 mmHg 90%
06:00 0°C° 0 mm 3 m/s 739 mmHg 89%
07:00 0°C° 0 mm 3 m/s 739 mmHg 89%
08:00 +1°C° 0 mm 3 m/s 739 mmHg 88%
09:00 +1°C° 0 mm 4 m/s 739 mmHg 82%
10:00 +4°C° 0 mm 4 m/s 739 mmHg 75%
11:00 +6°C° 0 mm 4 m/s 739 mmHg 69%
12:00 +6°C° 0 mm 4 m/s 738 mmHg 66%
13:00 +7°C° 0 mm 4 m/s 738 mmHg 62%
14:00 +8°C° 0 mm 4 m/s 738 mmHg 59%
15:00 +9°C° 0 mm 3 m/s 737 mmHg 61%
16:00 +9°C° 0 mm 2 m/s 737 mmHg 62%
17:00 +9°C° 0 mm 2 m/s 737 mmHg 64%
18:00 +8°C° 0 mm 2 m/s 736 mmHg 68%
19:00 +8°C° 0 mm 1 m/s 736 mmHg 72%
20:00 +7°C° 0 mm 1 m/s 736 mmHg 76%
21:00 +6°C° 0 mm 1 m/s 736 mmHg 77%
22:00 +6°C° 0 mm 1 m/s 736 mmHg 78%
23:00 +5°C° 0 mm 1 m/s 736 mmHg 79%

4 Março, Quinta-feira

Tempo Temperatura Precipitação Vento Pressão Humidade
00:00 +4°C° 0 mm 2 m/s 735 mmHg 82%
01:00 +3°C° 0 mm 2 m/s 735 mmHg 84%
02:00 +3°C° 0 mm 2 m/s 734 mmHg 86%
03:00 +2°C° 0 mm 2 m/s 734 mmHg 87%
04:00 +2°C° 0 mm 2 m/s 733 mmHg 87%
05:00 +2°C° 0 mm 2 m/s 733 mmHg 88%
06:00 +2°C° 0 mm 2 m/s 733 mmHg 87%
07:00 +1°C° 0 mm 3 m/s 732 mmHg 86%
08:00 +1°C° 0 mm 3 m/s 732 mmHg 84%
09:00 +3°C° 0 mm 3 m/s 732 mmHg 78%
10:00 +4°C° 0 mm 4 m/s 731 mmHg 72%
11:00 +6°C° 0 mm 4 m/s 731 mmHg 66%
12:00 +7°C° 0 mm 5 m/s 731 mmHg 63%
13:00 +8°C° 0 mm 5 m/s 730 mmHg 59%
14:00 +9°C° 0 mm 5 m/s 730 mmHg 56%
15:00 +10°C° 0 mm 4 m/s 729 mmHg 58%
16:00 +10°C° 0 mm 4 m/s 729 mmHg 60%
17:00 +10°C° 0 mm 3 m/s 728 mmHg 62%
18:00 +9°C° 0 mm 3 m/s 728 mmHg 67%
19:00 +7°C° 0 mm 3 m/s 728 mmHg 73%
20:00 +5°C° 0 mm 4 m/s 728 mmHg 78%
21:00 +5°C° 0.1 mm 4 m/s 728 mmHg 80%
22:00 +4°C° 0.1 mm 4 m/s 728 mmHg 81%
23:00 +4°C° 0.1 mm 4 m/s 728 mmHg 83%
Mostrar mais

Necessitamos do seu Consentimento

A Meteoprog e os seus Fornecedores de Serviços podem armazenar e aceder a dados pessoais como cookies, identificadores do dispositivo ou outras tecnologias semelhantes existentes no seu dispositivo e processar estes dados para personalizar conteúdos e anúncios, assim como funcionalidades nas redes sociais e análise de tráfego.

  • Armazenar e/ou aceder a informações no seu dispositivo

    Os cookies, identificadores do dispositivo ou outras informações podem ser armazenados ou acedidos no seu dispositivo, para os fins acima indicados.

  • Anúncios e conteúdos personalizados, medição de anúncios e conteúdos, dados sobre o público-alvo e desenvolvimento de produtos

    Os anúncios e os conteúdos podem ser personalizados com base num perfil. Podem ser adicionados dados adicionais para uma maior personalização dos anúncios e dos conteúdos. A eficácia dos anúncios e dos conteúdos pode ser medida. Podem ser obtidas informações sobre o público que visualizou os anúncios e os conteúdos. Estes dados podem ser usados para desenvolver ou melhorar sistemas, softwares ou a experiência do utilizador.

Ao clicar em "Eu concordo”, permitirá o uso de cookies, identificadores do dispositivo e web beacons mencionados ou outras tecnologias semelhantes. As configurações do navegador do seu dispositivo podem ser alteradas.

Para certos fins, podem ser invocados interesses legítimos ao invés de consentimento. Pode ler mais informação sobre este assunto na nossa Política de Privacidade e Cookies.